Zurück zum Katalog

SHCHUKIN A.V.

AktivNavigationSSO
NORAD 57201·PAYLOAD·🇷🇺 Russia
Dieser Satellitenname wurde noch nicht durch offizielle Quellen bestätigt.

Gestartet Jun 27, 2023 von Vostochny Cosmodrome

Loading…

Nächste Überflüge (nächste 24 Stunden)

TLE

AktuellSource: Space-Track

Epoche: Sep 14, 2026, 12:13 UTC

1 57201U 23091AM  26257.50924448  .00017179  00000-0  41583-3 0  9997
2 57201  97.4994 330.0073 0007529 110.3964 249.8091 15.41153647178491

Verfolge SHCHUKIN A.V. in Echtzeit mit AllMySat

Download on the App Store